This is the latest recevied weather packets stored in our database for station/object N8TWM-13. If no packets are shown the sender has not sent any weather packets the latest 1 day(s).
| Time | Temp. | Humidity | Pressure | Rain* | Wind** | Luminosity | Snow |
|---|---|---|---|---|---|---|---|
| 1778050822 | 6.67° C | 97% | 1008.3 hPa | 3.05 mm | 1.34 m/s, 11° | 0 W/m² | - |
| 1778050520 | 6.67° C | 97% | 1007.9 hPa | 3.05 mm | 2.24 m/s, 325° | 0 W/m² | - |
| 1778050217 | 6.67° C | 97% | 1008 hPa | 3.05 mm | 1.34 m/s, 26° | 0 W/m² | - |
| 1778049914 | 6.67° C | 97% | 1007.9 hPa | 3.05 mm | 2.24 m/s, 58° | 0 W/m² | - |
| 1778049609 | 6.67° C | 97% | 1007.7 hPa | 3.05 mm | 2.68 m/s, 25° | 0 W/m² | - |
| 1778049307 | 6.67° C | 97% | 1008.1 hPa | 3.56 mm | 2.68 m/s, 4° | 0 W/m² | - |
| 1778049005 | 6.67° C | 97% | 1008.1 hPa | 4.83 mm | 0.89 m/s, 316° | 0 W/m² | - |
| 1778048703 | 6.67° C | 97% | 1008.1 hPa | 4.32 mm | 2.68 m/s, 64° | 0 W/m² | - |
| 1778048399 | 7.22° C | 97% | 1007.8 hPa | 4.83 mm | 1.79 m/s, 84° | 0 W/m² | - |
| 1778048095 | 7.22° C | 97% | 1007.9 hPa | 4.83 mm | 0.45 m/s, 273° | 0 W/m² | - |
| 1778047793 | 7.78° C | 97% | 1008 hPa | 4.32 mm | 2.24 m/s, 295° | 0 W/m² | - |
| 1778047491 | 7.78° C | 97% | 1007.8 hPa | 4.83 mm | 0 m/s | 0 W/m² | - |
| 1778047188 | 7.78° C | 97% | 1007.6 hPa | 3.05 mm | 1.34 m/s, 1° | 0 W/m² | - |
| 1778046885 | 7.78° C | 97% | 1008.1 hPa | 1.27 mm | 0.45 m/s, 309° | 0 W/m² | - |
| 1778046582 | 7.78° C | 97% | 1007.9 hPa | 0 mm | 0.45 m/s, 338° | 0 W/m² | - |
| 1778046279 | 7.78° C | 97% | 1008.1 hPa | 1.78 mm | 0.45 m/s, 324° | 0 W/m² | - |
| 1778045974 | 7.78° C | 97% | 1008 hPa | 3.05 mm | 0.45 m/s, 294° | 0 W/m² | - |
| 1778045673 | 7.78° C | 97% | 1008.1 hPa | 1.27 mm | 0 m/s | 0 W/m² | - |
| 1778045371 | 7.78° C | 97% | 1008 hPa | 1.78 mm | 0.89 m/s, 70° | 0 W/m² | - |
| 1778045069 | 8.33° C | 97% | 1008 hPa | 3.56 mm | 0 m/s | 0 W/m² | - |
| 1778044767 | 8.33° C | 97% | 1008 hPa | 3.05 mm | 0.45 m/s, 298° | 0 W/m² | - |
| 1778044463 | 8.33° C | 97% | 1008.5 hPa | 1.27 mm | 0 m/s | 0 W/m² | - |
| 1778044160 | 8.33° C | 97% | 1008.3 hPa | 3.05 mm | 0 m/s | 0 W/m² | - |
| 1778043858 | 8.33° C | 97% | 1008.3 hPa | 1.78 mm | 0 m/s | 0 W/m² | - |
| 1778043555 | 8.33° C | 97% | 1008.4 hPa | 1.27 mm | 0 m/s | 0 W/m² | - |
* Rain latest hour (hover to see other rain measurements)
** Current wind speed in m/s (hover to see current wind gust speed)